�������C�����ː����j�^�v���󋵏��
Date,Time,Cs137(Bq/L),Cs134(Bq/L),�S��(Bq/L)
2019/07/25,00:00,0.79,ND,ND
2019/07/25,00:10,0.79,ND,ND
2019/07/25,00:20,0.78,ND,9.0
2019/07/25,00:30,0.76,ND,ND
2019/07/25,00:40,0.70,ND,9.5
2019/07/25,00:50,0.76,ND,ND
2019/07/25,01:00,0.74,ND,ND
2019/07/25,01:10,0.74,ND,ND
2019/07/25,01:20,0.74,ND,ND
2019/07/25,01:30,0.76,ND,ND
2019/07/25,01:40,0.75,ND,ND
2019/07/25,01:50,0.71,ND,ND
2019/07/25,02:00,0.72,ND,ND
2019/07/25,02:10,0.70,ND,ND
2019/07/25,02:20,0.69,ND,ND
2019/07/25,02:30,0.69,ND,ND
2019/07/25,02:40,0.68,ND,ND
2019/07/25,02:50,0.65,ND,ND
2019/07/25,03:00,0.65,ND,ND
2019/07/25,03:10,0.66,ND,ND
2019/07/25,03:20,0.67,ND,ND
2019/07/25,03:30,0.66,ND,ND
2019/07/25,03:40,0.63,ND,ND
2019/07/25,03:50,0.67,ND,ND
2019/07/25,04:00,0.69,ND,ND
2019/07/25,04:10,0.68,ND,9.2
2019/07/25,04:20,0.63,ND,11
2019/07/25,04:30,0.62,ND,11
2019/07/25,04:40,0.64,ND,10
2019/07/25,04:50,0.64,ND,12
2019/07/25,05:00,0.64,ND,11
2019/07/25,05:10,0.64,ND,9.6
2019/07/25,05:20,0.66,ND,ND
2019/07/25,05:30,0.73,ND,ND
2019/07/25,05:40,0.74,ND,ND
2019/07/25,05:50,0.76,ND,ND
2019/07/25,06:00,0.77,ND,ND
2019/07/25,06:10,0.79,ND,ND
2019/07/25,06:20,0.78,ND,ND
2019/07/25,06:30,0.79,ND,ND
2019/07/25,06:40,0.79,ND,ND
2019/07/25,06:50,0.82,ND,ND
2019/07/25,07:00,0.81,ND,ND
2019/07/25,07:10,0.76,ND,ND
2019/07/25,07:20,0.79,ND,ND
2019/07/25,07:30,0.79,ND,ND
2019/07/25,07:40,0.78,ND,ND
2019/07/25,07:50,0.77,ND,ND
2019/07/25,08:00,0.78,ND,ND
2019/07/25,08:10,0.78,ND,ND
2019/07/25,08:20,0.75,ND,ND
2019/07/25,08:30,0.73,ND,10
2019/07/25,08:40,0.73,ND,10
2019/07/25,08:50,0.70,ND,9.9
2019/07/25,09:00,0.69,ND,ND
2019/07/25,09:10,0.67,ND,ND
2019/07/25,09:20,0.66,ND,ND
2019/07/25,09:30,0.67,ND,ND
2019/07/25,09:40,0.65,ND,ND
2019/07/25,09:50,0.65,ND,ND
2019/07/25,10:00,0.64,ND,ND
2019/07/25,10:10,0.63,ND,ND
2019/07/25,10:20,0.67,ND,ND
2019/07/25,10:30,0.66,ND,ND
2019/07/25,10:40,0.67,ND,ND
2019/07/25,10:50,0.68,ND,ND
2019/07/25,11:00,0.64,ND,8.8
2019/07/25,11:10,0.67,ND,8.9
2019/07/25,11:20,0.60,ND,8.9
2019/07/25,11:30,0.59,ND,ND
2019/07/25,11:40,0.58,ND,ND
2019/07/25,11:50,0.58,ND,ND
2019/07/25,12:00,0.57,ND,ND
2019/07/25,12:10,0.58,ND,11
2019/07/25,12:20,0.60,ND,11
2019/07/25,12:30,0.61,ND,9.7
2019/07/25,12:40,0.61,ND,ND
2019/07/25,12:50,0.60,ND,ND
2019/07/25,13:00,0.60,ND,ND
2019/07/25,13:10,0.59,ND,ND
2019/07/25,13:20,0.58,ND,ND
2019/07/25,13:30,0.55,ND,ND
2019/07/25,13:40,0.53,ND,ND
2019/07/25,13:50,0.50,ND,ND
2019/07/25,14:00,0.49,ND,ND
2019/07/25,14:10,0.51,ND,ND
2019/07/25,14:20,0.50,ND,ND
2019/07/25,14:30,0.50,ND,ND
2019/07/25,14:40,0.53,ND,ND
2019/07/25,14:50,0.55,ND,ND
2019/07/25,15:00,0.56,ND,ND
2019/07/25,15:10,0.56,ND,ND
2019/07/25,15:20,0.57,ND,ND
2019/07/25,15:30,0.56,ND,ND
2019/07/25,15:40,0.57,ND,ND
2019/07/25,15:50,0.57,ND,ND
2019/07/25,16:00,0.58,ND,ND
2019/07/25,16:10,0.56,ND,ND
2019/07/25,16:20,0.58,ND,ND
2019/07/25,16:30,0.59,ND,ND
2019/07/25,16:40,0.60,ND,ND
2019/07/25,16:50,0.61,ND,ND
2019/07/25,17:00,0.62,ND,ND
2019/07/25,17:10,0.58,ND,ND
2019/07/25,17:20,0.62,ND,ND
2019/07/25,17:30,0.63,ND,ND
2019/07/25,17:40,0.64,ND,8.9
2019/07/25,17:50,0.64,ND,8.8
2019/07/25,18:00,0.66,ND,ND
2019/07/25,18:10,0.63,ND,ND
2019/07/25,18:20,0.65,ND,ND
2019/07/25,18:30,0.67,ND,ND
2019/07/25,18:40,0.67,ND,ND
2019/07/25,18:50,0.67,ND,ND
2019/07/25,19:00,0.70,ND,ND
2019/07/25,19:10,0.69,ND,ND
2019/07/25,19:20,0.69,ND,ND
2019/07/25,19:30,0.69,ND,ND
2019/07/25,19:40,0.69,ND,ND
2019/07/25,19:50,0.69,ND,ND
2019/07/25,20:00,0.70,ND,ND
2019/07/25,20:10,0.72,ND,ND
2019/07/25,20:20,0.72,ND,ND
2019/07/25,20:30,0.73,ND,ND
2019/07/25,20:40,0.74,ND,ND
2019/07/25,20:50,0.69,ND,ND
2019/07/25,21:00,0.70,ND,ND
2019/07/25,21:10,0.71,ND,9.5
2019/07/25,21:20,0.70,ND,ND
2019/07/25,21:30,0.69,ND,ND
2019/07/25,21:40,0.72,ND,ND
2019/07/25,21:50,0.73,ND,ND
2019/07/25,22:00,0.73,ND,ND
2019/07/25,22:10,0.70,ND,ND
2019/07/25,22:20,0.65,ND,ND
2019/07/25,22:30,0.69,ND,ND
2019/07/25,22:40,0.68,ND,ND
2019/07/25,22:50,0.65,ND,ND
2019/07/25,23:00,0.63,ND,ND
2019/07/25,23:10,0.62,ND,ND
2019/07/25,23:20,0.60,ND,ND
2019/07/25,23:30,0.60,ND,ND
2019/07/25,23:40,0.60,ND,ND
2019/07/25,23:50,0.59,ND,9.2
